Showing default

MIDAS 5 (STRONGBACK), 271

Orbit data source: Space-Track

MIDAS 5 (STRONGBACK), 271 is a payload satellite owned by USAF SSD (US) in LEO that was launched on Mon, 09 Apr 1962 UTC via an ATLAS AGENA B launch vehicle from the Air Force Western Test Range (AFWTR). Payload-class satellites include a variety of spacecraft equipped with specific instruments for various scientific and technological missions. These include communications satellites like Starlink; space stations such as the ISS; scientific satellites like the Hubble; Earth observation satellites from companies like Planet Labs, Umbra, and HawkEye 360; GPS; miniature CubeSats for education and research; and military/defense satellites.

Loading next visibility...
Identifier
271, 1962-010A
Orbit
LEO
Country
Flag of USUS
Related business
Manufacturer
LMSC
Mission
Spacecraft
Bus & Motor
MIDAS, Unknown motor
Mass
~1,543 kg wet, ~840 kg dry
Launch date (UTC)
1962-04-09 (64 years ago)
Launch vehicle
ATLAS AGENA B
Launch site
Air Force Western Test Range (AFWTR)
Object type
Payload
Rocket body
Debris
Shape & HBR
Unknown
Radar Cross Section
Large (>1 m²)

Expand to show TLE details & history
Last TLE update: 7 hours ago

TLE from 7 hours ago
0 MIDAS 5 (STRONGBACK)
1 00271U 62010A   25353.92623169 -.00000001  00000-0 -84944-3 0  9990
2 00271  86.6695 341.9361 0326974 249.7730 106.7737  9.41307619188808
Epoch: 2025-12-19T22:13Z
TLE epoch observation values (Epoch: 2025-12-19T22:13:46.418Z)
Latitude
0.00002°
Longitude
-80.26769°
Altitude
3,197.775 km
Speed
6.419 km/s
True Right ascension
22h 47m 44s
True Declination
0° 00' 00"
Sunlit
Object was in daylight at epoch
Visualization orbit readout
Latitude
Unknown
Longitude
Unknown
Altitude
Unknown
Speed
Unknown
Apparent Right ascension
Unknown
Apparent Declination
Unknown
Sunlit
N/A
Visualization observer readout
Local Sidereal Time
04:36:04
Azimuth
Unknown
Elevation
Unknown
Doppler factor
Unknown
Orbital elements
Apogee altitude
3,404.333 km
Perigee altitude
2,784.865 km
Semi-major axis
9,472.736 km
Eccentricity
0.0327
Inclination
86.6695°
RAAN
341.9361°
Arg. of periapsis
249.773°
True anomaly
110.31703°
Mean anomaly
106.7737°
Eccentric anomaly
108.54979°
Mean motion
2.35413 °/min
Orbital period
152.92 mins
BSTAR
-0.00084944
Loading maneuver chart data...
Computing Atmospheric mass density...
Loading historical data...
Loading historical data...
Loading historical data...
Loading historical data...
Loading historical data...
Loading historical data...
Loading historical data...

Documentation

Showing up to 5 results
|